Location: Laterina
(43.5167°N, 11.7167°E)
Time: 05:08:12
(UTC+00:00)

Cosmos 1733 - Pass Details

Date: 24 September 2020
Orbit: 504 x 523 km, 82.5° (Epoch: 25 October)

Event Time Altitude Azimuth Distance (km) Brightness Sun altitude
Exits shadow 19:13:16 35° 212° (SSW) 859 4.3 -23.3°
Maximum altitude 19:14:43 62° 280° (W) 585 3.6 -23.6°
Drops below altitude 10° 19:18:32 10° 2° (N) 1,751 6.1 -24.2°
Sets 19:20:41 0° 6° (N) 2,640 7.0 -24.5°
